Voltar ao catálogo

STARLINK-30568

AtivoComunicaçõesVLEO
NORAD 58051·PAYLOAD·🇺🇸 United States

Lançado Oct 13, 2023 de Cape Canaveral Space Force Station

Loading…

Próximas Passagens (próximas 24 horas)

TLE

AtualizadoSource: CelesTrak SupGP

Época: Sep 15, 2026, 03:10 UTC

1 58051C 23158A   26258.13243056 -.00048507  00000+0 -17563-2 0  2582
2 58051  43.0043  37.5855 0001540 263.6338 253.5607 15.27613524    14

Acompanhe STARLINK-30568 em tempo real com AllMySat

Download on the App Store